Wind_Speed
40 39 37 36 36 35 35 34 34 34 33 32 31 32 32 31 29 28 27 27 27 26 26 26 27 26 26 26 24 23 23 23 21 20 19 19 19 19 19 19 19 18 18
41 41 39 38 38 37 37 36 36 36 36 35 34 34 35 34 32 31 30 30 29 29 28 28 29 28 28 28 26 26 25 25 24 23 22 21 21 21 21 21 21 20 20
40 40 39 39 38 38 37 37 37 37 37 37 36 36 35 35 35 34 33 33 32 31 31 30 30 31 31 29 27 26 25 25 24 24 23 23 23 23 22 22 22 22 22
38 37 37 36 36 36 37 37 37 37 37 37 37 36 36 36 35 35 36 36 36 35 34 32 31 31 32 29 28 27 26 26 25 25 24 24 24 23 23 23 23 23 23
36 35 35 34 34 35 35 36 37 37 37 37 37 37 37 36 36 37 37 37 38 37 35 35 34 32 31 29 28 29 28 27 26 26 25 24 23 23 24 23 24 24 23
33 33 33 33 33 33 34 35 36 37 37 37 38 38 37 36 37 38 38 39 38 39 38 35 34 32 29 28 26 27 28 27 26 26 24 23 23 23 23 24 24 23 23
32 32 33 33 33 33 34 35 36 36 37 37 38 37 37 36 37 38 39 39 40 40 38 35 34 31 29 28 27 26 25 25 24 24 23 23 23 23 23 23 22 22 22
30 31 32 32 32 32 33 34 34 35 35 35 35 35 35 35 36 37 36 37 38 37 35 34 32 28 27 27 27 27 26 24 23 23 22 22 23 23 23 23 22 22 22
26 27 28 28 29 29 29 30 30 30 30 31 32 32 32 32 32 32 32 33 32 32 32 29 27 26 26 26 26 25 24 23 23 22 22 22 22 23 23 23 22 22 22
20 22 24 24 25 25 24 25 25 25 26 26 27 27 27 27 26 26 27 27 29 29 26 24 25 25 25 23 22 22 21 21 22 22 22 22 22 23 23 23 23 23 22
15 17 18 19 20 20 19 19 19 19 19 19 20 20 20 21 22 23 23 23 23 21 19 20 20 21 21 20 19 19 20 21 22 23 22 22 23 23 23 24 24 24 24
11 11 11 11 12 11 11 12 12 11 11 11 11 12 14 15 15 15 16 15 15 16 16 16 17 17 17 17 18 19 20 21 22 22 23 23 24 24 24 24 24 24 24
6 4 4 4 3 3 3 4 5 5 5 5 5 7 7 8 8 7 7 8 9 10 10 11 11 12 14 16 18 19 21 21 22 22 22 23 23 23 24 24 24 24 24
12 11 11 9 9 7 5 4 3 3 2 2 1 1 1 1 2 3 5 5 6 6 7 9 11 13 15 18 19 20 20 21 21 21 22 22 22 22 22 23 23 23 23
17 17 15 13 12 11 10 9 8 7 7 6 5 4 3 3 3 4 5 6 7 8 10 12 13 15 16 17 19 19 19 20 20 21 21 21 22 22 22 22 22 22 22
19 18 17 16 14 13 12 11 10 8 7 7 6 6 6 6 7 7 8 9 10 11 12 14 15 16 16 17 18 18 19 19 20 20 21 21 21 21 21 21 21 21 22
20 20 18 18 16 16 14 13 12 10 9 9 8 8 8 8 9 10 11 11 12 13 14 15 16 16 17 18 18 19 18 19 19 20 20 20 20 20 21 21 21 21 21
19 19 18 17 17 16 15 14 13 12 11 11 10 10 10 10 10 11 11 12 13 13 14 15 15 16 17 18 18 19 20 20 20 20 19 19 19 20 20 20 20 21 20
19 18 18 17 17 17 16 15 14 14 14 13 12 12 11 11 11 11 11 12 12 13 13 14 15 16 16 17 18 18 19 20 20 19 19 19 19 20 20 19 19 18 18
18 18 18 18 17 17 17 16 16 15 15 15 14 14 14 13 13 12 12 12 12 13 13 13 13 14 15 15 16 16 17 17 18 17 18 18 19 19 19 18 17 17 17
18 18 18 18 18 18 18 17 17 17 17 17 16 16 15 15 14 13 13 13 13 12 12 12 12 12 13 13 13 13 14 14 15 15 15 16 17 17 17 17 16 17 17
17 18 18 18 18 18 18 18 19 19 19 18 18 18 17 16 16 15 14 14 14 13 13 12 12 12 12 11 11 10 11 11 11 11 12 12 13 14 14 14 15 16 16
16 17 18 18 19 19 19 20 20 20 20 20 20 19 19 18 17 17 16 16 16 15 14 14 13 13 11 10 8 7 7 7 8 8 9 10 10 11 12 12 13 13 14
16 17 17 18 19 19 20 19 20 20 20 21 21 21 20 19 19 18 17 17 17 16 16 15 15 14 12 11 9 6 5 5 4 5 6 6 6 7 8 9 10 11 11
14 15 16 17 18 18 19 20 20 20 20 20 20 21 21 20 19 19 19 18 18 18 17 17 16 16 15 13 11 8 6 4 3 3 3 3 4 5 6 7 7 8 9
12 13 15 15 16 17 18 19 20 20 20 20 21 21 21 20 20 20 19 19 19 19 18 18 18 18 17 16 14 12 9 7 5 4 4 3 3 3 3 4 4 4 5
Wind_Direction
270 270 269 270 270 272 273 274 276 277 277 277 276 277 279 279 281 282 281 282 279 277 276 273 270 267 259 256 257 259 262 263 267 268 270 272 275 277 278 281 281 280 279
269 269 268 268 269 270 270 272 273 274 274 275 274 272 275 277 277 279 281 279 277 274 273 271 268 267 263 256 255 255 258 260 263 264 266 268 271 273 274 276 277 278 278
271 270 268 267 267 267 267 268 269 270 271 273 274 273 273 274 276 277 278 279 279 279 276 275 273 268 264 258 255 255 256 258 260 261 262 265 270 272 273 274 276 278 276
269 268 267 265 264 263 264 265 266 267 269 270 272 273 273 273 274 276 277 278 278 281 280 277 275 272 266 259 254 253 255 256 258 259 262 264 267 270 270 272 274 276 277
266 266 264 263 261 261 261 262 263 265 266 267 269 269 271 272 273 275 275 277 279 280 282 280 276 275 267 257 254 253 255 255 256 259 260 261 263 267 270 273 273 274 275
263 262 261 260 260 260 261 261 263 264 265 266 267 268 269 271 272 272 271 274 276 276 279 280 277 273 266 259 254 252 253 253 256 257 259 261 264 268 271 272 273 274 272
263 262 260 258 258 259 259 261 262 264 265 265 266 268 270 270 270 271 271 272 272 273 274 275 272 269 263 257 254 253 251 253 254 256 259 262 265 267 270 271 273 274 274
264 261 260 258 258 259 260 262 263 263 264 265 265 267 268 268 269 269 269 270 272 270 271 272 267 263 258 256 254 251 252 252 251 256 260 263 265 267 269 271 272 273 274
265 262 261 260 261 263 264 265 265 265 265 265 265 265 266 267 268 267 268 267 269 270 267 265 260 257 257 253 250 248 250 250 253 257 260 263 265 268 269 271 271 272 273
270 267 265 263 264 266 266 265 266 266 266 266 265 265 266 266 267 268 267 267 266 265 260 256 256 256 250 242 240 244 248 251 255 257 260 263 265 267 269 271 271 271 272
275 272 270 270 269 268 267 267 268 268 267 266 266 263 261 263 265 266 263 264 263 259 256 251 250 247 239 236 240 245 250 253 256 259 261 262 264 266 269 270 271 272 273
285 278 279 277 275 268 265 266 267 271 271 269 266 263 263 265 264 263 260 257 253 249 245 240 241 241 239 240 245 250 254 256 258 260 262 264 265 267 269 270 271 271 272
355 335 316 313 315 299 292 289 270 279 279 265 267 264 261 262 264 260 246 242 243 236 233 237 239 243 247 250 252 256 257 259 261 263 264 264 265 267 268 268 269 270 272
37 34 40 48 50 40 28 18 20 12 12 13 354 318 306 269 246 258 247 243 246 248 250 257 258 256 257 256 255 258 260 261 262 263 263 264 266 267 268 269 269 270 272
51 49 51 51 49 46 48 49 50 47 40 33 28 20 6 354 321 303 291 281 275 273 271 271 269 266 264 263 262 262 263 263 263 263 263 265 267 267 268 269 270 270 271
50 49 49 48 46 46 47 46 43 40 33 23 14 3 347 331 318 307 299 293 287 281 277 275 273 271 268 266 266 267 267 265 265 266 267 267 268 268 268 269 270 270 270
45 44 43 41 39 38 38 36 33 28 21 11 1 349 337 326 318 309 302 298 294 290 284 280 278 274 271 270 268 268 268 267 267 267 268 269 269 268 268 269 270 270 271
39 38 37 35 34 33 32 30 28 23 15 7 360 351 342 333 325 317 309 303 299 295 290 286 283 280 277 275 273 271 269 267 267 268 269 269 269 269 269 268 269 270 271
35 34 33 31 30 29 27 26 23 21 17 12 6 359 353 346 339 331 323 316 309 304 299 294 289 285 281 279 277 273 270 269 268 268 269 268 267 268 268 269 270 271 272
33 33 31 30 29 29 28 27 25 22 19 16 12 7 2 356 351 345 340 334 327 321 315 309 302 296 289 284 280 275 272 270 269 268 267 267 266 266 266 268 269 270 272
34 32 31 31 31 31 31 30 30 27 24 21 18 16 12 8 3 358 353 349 345 339 333 326 319 312 305 296 288 282 277 274 272 269 267 266 266 265 264 265 267 269 271
34 34 34 34 34 35 36 35 33 31 29 27 25 22 20 17 14 11 8 3 359 354 349 343 336 330 322 313 301 291 283 277 274 271 268 267 267 265 264 266 269 269 269
37 37 37 37 38 38 37 36 34 33 31 29 27 25 22 21 19 18 16 13 10 6 2 358 354 349 343 335 324 309 295 285 278 272 271 270 268 265 265 267 269 269 268
39 39 38 39 39 38 37 35 34 32 30 28 26 25 24 24 23 22 20 18 17 16 15 13 11 10 8 5 358 347 332 317 302 287 280 275 272 270 270 272 273 271 269
39 38 38 38 38 37 35 34 33 31 29 28 26 26 26 26 26 26 25 24 24 24 24 24 23 23 22 22 22 19 14 6 356 338 315 294 285 283 282 280 279 277 274
37 36 36 36 35 35 33 32 31 30 29 29 28 28 27 27 27 27 28 28 29 29 30 30 30 30 31 31 32 34 36 37 35 27 21 16 1 342 327 314 302 296 292
Height
5867 5867 5869 5869 5869 5869 5869 5869 5869 5869 5870 5870 5869 5868 5869 5868 5869 5869 5868 5868 5868 5868 5869 5869 5869 5869 5869 5870 5871 5871 5872 5872 5873 5873 5874 5874 5874 5874 5874 5874 5874 5875 5875
5856 5857 5859 5860 5860 5861 5861 5861 5861 5861 5861 5862 5862 5861 5861 5861 5861 5862 5862 5862 5861 5861 5862 5862 5862 5863 5863 5864 5865 5865 5866 5867 5867 5868 5869 5869 5870 5870 5870 5869 5869 5869 5870
5846 5847 5848 5849 5850 5851 5852 5852 5852 5852 5853 5853 5853 5853 5853 5853 5853 5854 5854 5854 5854 5854 5854 5855 5855 5856 5856 5857 5858 5859 5860 5861 5862 5863 5864 5864 5864 5865 5865 5865 5864 5864 5864
5835 5836 5838 5839 5840 5841 5842 5843 5843 5843 5844 5844 5844 5844 5844 5845 5846 5846 5846 5846 5846 5846 5846 5847 5847 5848 5849 5849 5851 5852 5853 5855 5856 5856 5857 5858 5858 5859 5859 5859 5859 5859 5858
5825 5826 5828 5829 5830 5831 5832 5833 5833 5834 5835 5835 5835 5836 5836 5836 5837 5838 5838 5838 5838 5839 5839 5839 5840 5841 5841 5842 5843 5845 5846 5848 5849 5850 5851 5851 5852 5852 5853 5853 5853 5853 5853
5815 5817 5818 5820 5821 5821 5822 5823 5824 5825 5825 5826 5826 5827 5828 5829 5829 5829 5829 5830 5830 5830 5831 5831 5832 5833 5833 5834 5835 5837 5839 5841 5843 5843 5844 5845 5846 5846 5847 5847 5846 5846 5847
5807 5809 5810 5811 5811 5812 5813 5813 5814 5815 5816 5816 5817 5818 5819 5820 5821 5821 5821 5821 5822 5822 5822 5823 5824 5825 5826 5827 5829 5830 5832 5834 5836 5837 5838 5839 5840 5840 5840 5841 5840 5841 5841
5800 5801 5802 5802 5803 5804 5804 5805 5805 5806 5806 5807 5808 5809 5810 5811 5812 5812 5813 5814 5814 5814 5814 5815 5816 5817 5818 5819 5822 5824 5825 5828 5829 5831 5832 5833 5833 5834 5834 5834 5835 5835 5835
5793 5794 5794 5795 5796 5796 5797 5797 5797 5798 5799 5799 5800 5801 5802 5803 5803 5804 5804 5805 5806 5806 5806 5807 5809 5810 5811 5813 5814 5816 5819 5821 5823 5824 5826 5826 5827 5828 5828 5828 5829 5829 5830
5788 5788 5789 5789 5790 5790 5790 5791 5791 5791 5792 5793 5793 5794 5795 5795 5796 5796 5797 5798 5798 5799 5799 5801 5802 5803 5804 5806 5808 5811 5813 5815 5817 5818 5819 5820 5821 5822 5822 5822 5822 5823 5824
5785 5785 5785 5785 5785 5785 5786 5786 5786 5786 5787 5787 5788 5788 5789 5790 5790 5790 5791 5792 5792 5792 5794 5795 5797 5798 5799 5801 5804 5806 5808 5810 5811 5813 5813 5814 5815 5816 5816 5816 5816 5817 5817
5783 5782 5782 5782 5782 5782 5783 5783 5783 5783 5783 5783 5784 5784 5785 5785 5785 5786 5787 5787 5788 5789 5790 5791 5792 5794 5796 5798 5800 5801 5803 5805 5806 5807 5807 5808 5809 5810 5810 5810 5810 5811 5811
5784 5783 5782 5781 5781 5781 5781 5781 5781 5781 5781 5781 5781 5782 5782 5782 5782 5782 5784 5785 5785 5786 5787 5788 5789 5791 5792 5794 5795 5797 5798 5799 5800 5801 5802 5802 5803 5803 5803 5804 5804 5805 5805
5787 5785 5784 5783 5782 5782 5782 5781 5781 5781 5781 5781 5781 5781 5781 5781 5781 5782 5782 5783 5783 5784 5785 5786 5787 5788 5789 5789 5791 5791 5792 5793 5794 5795 5796 5796 5797 5797 5797 5798 5798 5799 5799
5790 5789 5787 5786 5786 5785 5784 5783 5782 5782 5782 5782 5781 5781 5781 5781 5781 5781 5781 5781 5781 5782 5782 5783 5784 5784 5784 5785 5785 5786 5787 5788 5788 5789 5790 5790 5791 5791 5791 5792 5792 5792 5792
5795 5793 5791 5790 5789 5788 5787 5786 5785 5784 5784 5783 5782 5782 5781 5781 5780 5780 5780 5779 5779 5779 5779 5779 5779 5779 5779 5780 5780 5780 5781 5782 5782 5783 5784 5784 5785 5785 5785 5786 5786 5786 5786
5799 5797 5795 5794 5792 5790 5789 5788 5787 5786 5785 5784 5783 5782 5781 5780 5779 5778 5777 5776 5776 5775 5775 5775 5774 5774 5774 5774 5774 5774 5775 5776 5777 5777 5778 5779 5779 5779 5779 5779 5779 5780 5780
5803 5801 5798 5797 5795 5793 5791 5790 5788 5787 5785 5784 5782 5781 5780 5778 5777 5776 5775 5773 5772 5772 5771 5770 5769 5768 5768 5768 5768 5768 5769 5770 5770 5771 5772 5773 5772 5772 5773 5773 5773 5773 5773
5806 5804 5802 5800 5797 5796 5794 5792 5790 5788 5786 5784 5782 5780 5779 5777 5775 5774 5772 5770 5769 5768 5766 5765 5764 5763 5763 5762 5762 5762 5762 5763 5764 5765 5766 5766 5766 5766 5766 5767 5767 5768 5768
5809 5807 5805 5803 5800 5798 5796 5793 5791 5789 5787 5785 5782 5780 5778 5776 5773 5771 5770 5768 5766 5764 5762 5761 5759 5758 5757 5757 5756 5756 5756 5757 5758 5759 5759 5759 5760 5760 5760 5761 5762 5762 5762
5813 5810 5808 5805 5803 5800 5798 5796 5793 5791 5788 5786 5783 5781 5778 5775 5773 5770 5768 5766 5764 5761 5759 5758 5756 5754 5752 5751 5751 5750 5751 5751 5752 5752 5753 5753 5754 5754 5755 5755 5756 5756 5757
5816 5814 5811 5808 5806 5803 5801 5798 5796 5793 5790 5787 5785 5782 5779 5776 5773 5770 5768 5765 5763 5760 5758 5756 5753 5751 5749 5747 5746 5746 5746 5746 5747 5747 5748 5748 5748 5749 5750 5750 5751 5751 5752
5820 5817 5815 5812 5809 5806 5804 5801 5799 5796 5793 5790 5787 5784 5781 5778 5774 5772 5769 5766 5763 5760 5757 5754 5752 5749 5746 5744 5743 5742 5742 5742 5743 5743 5744 5744 5744 5745 5745 5746 5746 5746 5747
5823 5821 5818 5815 5813 5810 5807 5805 5802 5799 5796 5793 5790 5786 5783 5780 5776 5773 5770 5767 5764 5761 5758 5755 5752 5749 5746 5743 5741 5740 5740 5740 5740 5740 5741 5741 5741 5742 5742 5742 5742 5743 5743
5826 5824 5821 5819 5816 5814 5811 5808 5805 5802 5799 5796 5793 5789 5786 5782 5779 5776 5772 5769 5766 5762 5759 5756 5753 5750 5747 5744 5742 5740 5739 5739 5739 5739 5739 5739 5739 5739 5739 5739 5739 5740 5740
5829 5827 5824 5822 5819 5817 5814 5811 5808 5806 5802 5799 5796 5792 5789 5785 5782 5779 5775 5772 5768 5765 5762 5759 5756 5753 5749 5746 5744 5741 5740 5739 5739 5739 5739 5738 5738 5738 5738 5738 5737 5738 5738